Погода в Иу

Китай     22°00′13″N   101°27′44″E
темп.,
°C
ветер,
м/с
пор.,
м/с
влажн.,
%
обл.,
%
осадки,
мм/ч
давл.,
гПа
погр.,
м
5 декабря, вс
вс523:00+11всв11735 0.0 102122
02:00+10всв117670 0.0 102118
05:00+9всв11816 0.0 102120
08:00+8всв118516 0.0 102335
11:00+18в124918 0.0 1022740
14:00+21в113910 0.0 10181567
17:00+20в114623 0.0 10161316
20:00+13в11725 0.0 102019
6 декабря, пн
пн623:00+12в11775 0.0 102123
02:00+11всв118268 0.0 102015
05:00+10всв118840 0.0 101919
08:00+10всв11895 0.0 102128
11:00+19в12505 0.0 1020758
14:00+22юв114158 0.0 10161644
17:00+21вюв114970 0.0 10141424
20:00+14в11773 0.0 101821
7 декабря, вт
вт723:00+13в11785 0.0 101922
02:00+12в118129 0.0 101816
05:00+11всв118541 0.0 101820
08:00+11в118469 0.0 102039
11:00+19в125522 0.0 1019652
14:00+22зсз024537 0.0 10161428
17:00+20з116140 0.0 101467
20:00+16всв11777 0.0 101716
8 декабря, ср
ср823:00+13всв11892 0.0 101914
02:00+13в118826 0.0 101822
05:00+11всв11961 0.0 101918
08:00+11всв11964 0.0 102025
11:00+20юв12570 0.0 1020739
14:00+24ююз114646 0.0 10161552
17:00+23ююз015492 0.0 1015283
20:00+18в1173100 0.0 101721
9 декабря, чт
чт923:00+17в117571 0.0 101940
02:00+13в118712 0.0 101918
05:00+13в1183100 0.0 101932
08:00+14в1177100 0.0 102059
11:00+17вюв126797 0.0 1021279
14:00+21ююв125112 0.0 1017904
17:00+22юв11535 0.0 10151105
20:00+14в118279 0.0 101828